Location: Unspecified
(0.0000°N, 0.0000°E)
Time: 23:46:05
(UTC+00:00)

CZ-3B DEB - Pass Details

Date: 16 February 2026
Orbit: 1033 x 41494 km, 26.9° (Epoch: 29 July)

Event Time Altitude Azimuth Distance (km) Brightness Sun altitude
Rises 18:13:39 0° 247° (WSW) 9,666 ? 0.1°
Reaches altitude 10° 18:18:48 10° 242° (WSW) 10,087 ? -1.2°
Maximum altitude 21:01:15 58° 212° (SSW) 34,003 ? -40.7°
Enters shadow 04:45:35 - 271° (W) 29,327 ? -21.6°
Exits shadow 05:52:03 - 285° (WNW) 16,481 ? -5.4°
Drops below altitude 10° 06:37:37 10° 25° (NNE) 3,670 ? 5.8°
Sets 06:40:47 0° 47° (NE) 4,074 ? 6.5°
